Time,TemperatureF,DewpointF,PressureIn,WindDirection,WindDirectionDegrees,WindSpeedMPH,WindSpeedGustMPH,Humidity,HourlyPrecipIn,Conditions,Clouds,dailyrainin,SoftwareType,DateUTC
2013-09-06 00:01:00,65.8,51.1,30.10,ENE,72,4.0,10.0,59,0.00,,---,0.00,VWS V14.01,2013-09-06 04:01:00,
2013-09-06 00:02:00,65.8,51.1,30.10,NNE,22,5.0,7.0,59,0.00,,---,0.00,VWS V14.01,2013-09-06 04:02:00,
2013-09-06 00:07:00,65.6,51.4,30.10,ENE,64,3.0,12.0,60,0.00,,---,0.00,VWS V14.01,2013-09-06 04:07:00,
2013-09-06 00:12:00,65.5,51.3,30.10,North,359,6.0,12.0,60,0.00,,---,0.00,VWS V14.01,2013-09-06 04:12:00,
2013-09-06 00:17:00,65.3,51.5,30.10,ENE,69,1.0,12.0,61,0.00,,---,0.00,VWS V14.01,2013-09-06 04:17:00,
2013-09-06 00:22:00,65.2,51.4,30.10,West,268,2.0,12.0,61,0.00,,---,0.00,VWS V14.01,2013-09-06 04:22:00,
2013-09-06 00:27:00,65.2,51.4,30.11,NE,34,2.0,12.0,61,0.00,,---,0.00,VWS V14.01,2013-09-06 04:27:00,
2013-09-06 00:32:00,65.2,51.9,30.11,NW,304,1.0,4.0,62,0.00,,---,0.00,VWS V14.01,2013-09-06 04:32:00,
2013-09-06 00:37:00,65.1,52.2,30.11,NNE,18,2.0,7.0,63,0.00,,---,0.00,VWS V14.01,2013-09-06 04:37:00,
2013-09-06 00:42:00,65.3,52.8,30.11,NE,41,5.0,7.0,64,0.00,,---,0.00,VWS V14.01,2013-09-06 04:42:00,
2013-09-06 00:47:00,65.5,53.4,30.11,NE,51,1.0,8.0,65,0.00,,---,0.00,VWS V14.01,2013-09-06 04:47:00,
2013-09-06 00:52:00,65.4,53.8,30.11,ENE,68,1.0,8.0,66,0.00,,---,0.00,VWS V14.01,2013-09-06 04:52:00,
2013-09-06 00:57:00,65.7,54.9,30.11,North,8,2.0,8.0,68,0.00,,---,0.00,VWS V14.01,2013-09-06 04:57:00,
2013-09-06 01:02:00,66.2,54.1,30.11,NE,34,6.0,13.0,65,0.00,,---,0.00,VWS V14.01,2013-09-06 05:02:00,
2013-09-06 01:07:00,67.2,53.8,30.11,NNE,22,5.0,15.0,62,0.00,,---,0.00,VWS V14.01,2013-09-06 05:07:00,
2013-09-06 01:12:00,67.6,55.0,30.12,NNE,17,12.0,15.0,64,0.00,,---,0.00,VWS V14.01,2013-09-06 05:12:00,
2013-09-06 01:17:00,68.0,52.7,30.12,ENE,60,6.0,15.0,58,0.00,,---,0.00,VWS V14.01,2013-09-06 05:17:00,
2013-09-06 01:22:00,68.2,51.4,30.12,NNE,29,10.0,15.0,55,0.00,,---,0.00,VWS V14.01,2013-09-06 05:22:00,
2013-09-06 01:27:00,68.2,52.4,30.12,East,84,10.0,15.0,57,0.00,,---,0.00,VWS V14.01,2013-09-06 05:27:00,
2013-09-06 01:32:00,68.2,51.9,30.12,NNE,28,11.0,14.0,56,0.00,,---,0.00,VWS V14.01,2013-09-06 05:32:00,
2013-09-06 01:37:00,68.2,54.7,30.12,ENE,67,7.0,15.0,62,0.00,,---,0.00,VWS V14.01,2013-09-06 05:37:00,
2013-09-06 01:42:00,68.2,53.8,30.12,NNW,337,6.0,15.0,60,0.00,,---,0.00,VWS V14.01,2013-09-06 05:42:00,
2013-09-06 01:47:00,68.2,55.6,30.12,NE,53,5.0,15.0,64,0.00,,---,0.00,VWS V14.01,2013-09-06 05:47:00,
2013-09-06 01:52:00,68.2,55.1,30.12,NE,34,6.0,15.0,63,0.00,,---,0.00,VWS V14.01,2013-09-06 05:52:00,
2013-09-06 01:57:00,68.1,55.9,30.12,NNE,27,7.0,15.0,65,0.00,,---,0.00,VWS V14.01,2013-09-06 05:57:00,
2013-09-06 02:02:00,68.1,53.7,30.12,SE,124,9.0,12.0,60,0.00,,---,0.00,VWS V14.01,2013-09-06 06:02:00,
2013-09-06 02:07:00,68.1,54.2,30.12,ENE,64,9.0,13.0,61,0.00,,---,0.00,VWS V14.01,2013-09-06 06:07:00,
2013-09-06 02:12:00,68.1,53.7,30.12,ESE,104,4.0,13.0,60,0.00,,---,0.00,VWS V14.01,2013-09-06 06:12:00,
2013-09-06 02:17:00,68.1,54.6,30.12,ENE,68,4.0,14.0,62,0.00,,---,0.00,VWS V14.01,2013-09-06 06:17:00,
2013-09-06 02:22:00,68.0,54.5,30.12,NE,44,7.0,14.0,62,0.00,,---,0.00,VWS V14.01,2013-09-06 06:22:00,
2013-09-06 02:27:00,67.8,53.4,30.12,NNE,18,10.0,14.0,60,0.00,,---,0.00,VWS V14.01,2013-09-06 06:27:00,
2013-09-06 02:32:00,67.8,52.5,30.12,NE,47,9.0,10.0,58,0.00,,---,0.00,VWS V14.01,2013-09-06 06:32:00,
2013-09-06 02:37:00,67.7,51.9,30.12,NE,41,7.0,12.0,57,0.00,,---,0.00,VWS V14.01,2013-09-06 06:37:00,
2013-09-06 02:42:00,67.6,55.0,30.12,NE,55,4.0,12.0,64,0.00,,---,0.00,VWS V14.01,2013-09-06 06:42:00,
2013-09-06 02:47:00,67.6,52.8,30.12,NE,46,6.0,12.0,59,0.00,,---,0.00,VWS V14.01,2013-09-06 06:47:00,
2013-09-06 02:52:00,66.7,52.8,30.12,WNW,299,4.0,12.0,61,0.00,,---,0.00,VWS V14.01,2013-09-06 06:52:00,
2013-09-06 02:57:00,64.0,52.8,30.13,WNW,294,5.0,12.0,67,0.00,,---,0.00,VWS V14.01,2013-09-06 06:57:00,
2013-09-06 03:02:00,62.0,52.1,30.13,WNW,282,6.0,10.0,70,0.00,,---,0.00,VWS V14.01,2013-09-06 07:02:00,
2013-09-06 03:07:00,60.9,51.8,30.13,NNW,340,5.0,10.0,72,0.00,,---,0.00,VWS V14.01,2013-09-06 07:07:00,
2013-09-06 03:12:00,60.4,52.1,30.13,WNW,300,7.0,10.0,74,0.00,,---,0.00,VWS V14.01,2013-09-06 07:12:00,
2013-09-06 03:17:00,60.0,51.7,30.13,NW,319,2.0,10.0,74,0.00,,---,0.00,VWS V14.01,2013-09-06 07:17:00,
2013-09-06 03:22:00,59.8,51.9,30.13,NW,314,7.0,10.0,75,0.00,,---,0.00,VWS V14.01,2013-09-06 07:22:00,
2013-09-06 03:27:00,59.7,51.8,30.13,SW,223,1.0,10.0,75,0.00,,---,0.00,VWS V14.01,2013-09-06 07:27:00,
2013-09-06 03:32:00,59.8,52.2,30.13,NW,311,3.0,5.0,76,0.00,,---,0.00,VWS V14.01,2013-09-06 07:32:00,
2013-09-06 03:37:00,59.9,52.3,30.13,East,82,0.0,8.0,76,0.00,,---,0.00,VWS V14.01,2013-09-06 07:37:00,
2013-09-06 03:42:00,60.1,52.5,30.13,NNW,346,3.0,10.0,76,0.00,,---,0.00,VWS V14.01,2013-09-06 07:42:00,
2013-09-06 03:47:00,59.9,52.0,30.14,NW,322,6.0,11.0,75,0.00,,---,0.00,VWS V14.01,2013-09-06 07:47:00,
2013-09-06 03:52:00,59.6,51.7,30.14,NW,319,4.0,11.0,75,0.00,,---,0.00,VWS V14.01,2013-09-06 07:52:00,
2013-09-06 03:57:00,59.4,52.2,30.14,North,8,3.0,11.0,77,0.00,,---,0.00,VWS V14.01,2013-09-06 07:57:00,
2013-09-06 04:02:00,59.3,52.1,30.14,ENE,58,3.0,12.0,77,0.00,,---,0.00,VWS V14.01,2013-09-06 08:02:00,
2013-09-06 04:07:00,59.1,51.9,30.14,NNW,342,10.0,12.0,77,0.00,,---,0.00,VWS V14.01,2013-09-06 08:07:00,
2013-09-06 04:12:00,59.0,51.8,30.14,NE,46,2.0,13.0,77,0.00,,---,0.00,VWS V14.01,2013-09-06 08:12:00,
2013-09-06 04:17:00,58.8,51.6,30.14,West,281,4.0,13.0,77,0.00,,---,0.00,VWS V14.01,2013-09-06 08:17:00,
2013-09-06 04:22:00,58.6,51.8,30.14,WNW,302,2.0,13.0,78,0.00,,---,0.00,VWS V14.01,2013-09-06 08:22:00,
2013-09-06 04:27:00,58.4,51.9,30.14,NW,305,7.0,13.0,79,0.00,,---,0.00,VWS V14.01,2013-09-06 08:27:00,
2013-09-06 04:32:00,58.2,52.1,30.14,WNW,288,7.0,11.0,80,0.00,,---,0.00,VWS V14.01,2013-09-06 08:32:00,
2013-09-06 04:37:00,58.1,52.0,30.14,North,352,6.0,13.0,80,0.00,,---,0.00,VWS V14.01,2013-09-06 08:37:00,
2013-09-06 04:42:00,58.1,52.3,30.15,WNW,288,6.0,13.0,81,0.00,,---,0.00,VWS V14.01,2013-09-06 08:42:00,
2013-09-06 04:47:00,58.0,52.5,30.15,WNW,300,4.0,13.0,82,0.00,,---,0.00,VWS V14.01,2013-09-06 08:47:00,
2013-09-06 04:52:00,57.9,52.5,30.15,NW,317,6.0,13.0,82,0.00,,---,0.00,VWS V14.01,2013-09-06 08:52:00,
2013-09-06 04:57:00,57.8,52.3,30.15,WNW,286,2.0,13.0,82,0.00,,---,0.00,VWS V14.01,2013-09-06 08:57:00,
2013-09-06 05:02:00,57.8,52.3,30.15,ESE,110,1.0,7.0,82,0.00,,---,0.00,VWS V14.01,2013-09-06 09:02:00,
2013-09-06 05:07:00,57.6,52.2,30.15,West,278,3.0,9.0,82,0.00,,---,0.00,VWS V14.01,2013-09-06 09:07:00,
2013-09-06 05:12:00,57.7,52.2,30.15,NW,317,2.0,9.0,82,0.00,,---,0.00,VWS V14.01,2013-09-06 09:12:00,
2013-09-06 05:17:00,57.6,51.8,30.15,NW,313,5.0,10.0,81,0.00,,---,0.00,VWS V14.01,2013-09-06 09:17:00,
2013-09-06 05:22:00,57.6,51.8,30.16,NNE,21,7.0,11.0,81,0.00,,---,0.00,VWS V14.01,2013-09-06 09:22:00,
2013-09-06 05:27:00,57.6,52.2,30.16,NW,316,5.0,11.0,82,0.00,,---,0.00,VWS V14.01,2013-09-06 09:27:00,
2013-09-06 05:32:00,57.6,52.2,30.16,ENE,72,2.0,5.0,82,0.00,,---,0.00,VWS V14.01,2013-09-06 09:32:00,
2013-09-06 05:37:00,57.7,51.9,30.16,NNW,330,4.0,11.0,81,0.00,,---,0.00,VWS V14.01,2013-09-06 09:37:00,
2013-09-06 05:42:00,58.1,51.3,30.16,WSW,255,3.0,11.0,78,0.00,,---,0.00,VWS V14.01,2013-09-06 09:42:00,
2013-09-06 05:47:00,58.3,50.8,30.16,West,260,6.0,12.0,76,0.00,,---,0.00,VWS V14.01,2013-09-06 09:47:00,
2013-09-06 05:52:00,58.3,50.4,30.16,NW,326,6.0,12.0,75,0.00,,---,0.00,VWS V14.01,2013-09-06 09:52:00,
2013-09-06 05:57:00,58.4,50.5,30.16,NE,43,4.0,12.0,75,0.00,,---,0.00,VWS V14.01,2013-09-06 09:57:00,
2013-09-06 06:02:00,58.3,50.8,30.17,NW,321,2.0,9.0,76,0.00,,---,0.00,VWS V14.01,2013-09-06 10:02:00,
2013-09-06 06:07:00,58.3,50.1,30.17,NW,308,7.0,11.0,74,0.00,,---,0.00,VWS V14.01,2013-09-06 10:07:00,
2013-09-06 06:12:00,58.4,50.2,30.17,West,259,8.0,13.0,74,0.00,,---,0.00,VWS V14.01,2013-09-06 10:12:00,
2013-09-06 06:17:00,58.3,50.1,30.17,NW,318,5.0,13.0,74,0.00,,---,0.00,VWS V14.01,2013-09-06 10:17:00,
2013-09-06 06:22:00,58.3,49.7,30.17,West,273,5.0,14.0,73,0.00,,---,0.00,VWS V14.01,2013-09-06 10:22:00,
2013-09-06 06:27:00,58.2,49.6,30.18,NW,324,4.0,14.0,73,0.00,,---,0.00,VWS V14.01,2013-09-06 10:27:00,
2013-09-06 06:32:00,58.1,49.9,30.18,West,264,4.0,10.0,74,0.00,,---,0.00,VWS V14.01,2013-09-06 10:32:00,
2013-09-06 06:37:00,58.2,50.3,30.18,WNW,294,3.0,12.0,75,0.00,,---,0.00,VWS V14.01,2013-09-06 10:37:00,
2013-09-06 06:42:00,58.2,50.3,30.18,NNW,327,4.0,12.0,75,0.00,,---,0.00,VWS V14.01,2013-09-06 10:42:00,
2013-09-06 06:47:00,58.3,50.1,30.19,NE,34,3.0,12.0,74,0.00,,---,0.00,VWS V14.01,2013-09-06 10:47:00,
2013-09-06 06:52:00,58.6,50.3,30.19,NE,41,2.0,12.0,74,0.00,,---,0.00,VWS V14.01,2013-09-06 10:52:00,
2013-09-06 06:57:00,58.7,50.5,30.18,NNW,331,8.0,12.0,74,0.00,,---,0.00,VWS V14.01,2013-09-06 10:57:00,
2013-09-06 07:02:00,58.8,50.2,30.19,NE,49,5.0,12.0,73,0.00,,---,0.00,VWS V14.01,2013-09-06 11:02:00,
2013-09-06 07:07:00,58.8,50.2,30.19,WNW,285,7.0,12.0,73,0.00,,---,0.00,VWS V14.01,2013-09-06 11:07:00,
2013-09-06 07:12:00,59.0,50.4,30.19,West,279,4.0,14.0,73,0.00,,---,0.00,VWS V14.01,2013-09-06 11:12:00,
2013-09-06 07:17:00,59.0,50.0,30.19,WNW,300,8.0,14.0,72,0.00,,---,0.00,VWS V14.01,2013-09-06 11:17:00,
2013-09-06 07:22:00,59.1,50.1,30.19,WNW,303,8.0,14.0,72,0.00,,---,0.00,VWS V14.01,2013-09-06 11:22:00,
2013-09-06 07:27:00,59.2,49.8,30.19,NW,304,10.0,14.0,71,0.00,,---,0.00,VWS V14.01,2013-09-06 11:27:00,
2013-09-06 07:32:00,59.4,50.0,30.20,West,279,8.0,9.0,71,0.00,,---,0.00,VWS V14.01,2013-09-06 11:32:00,
2013-09-06 07:37:00,59.4,49.6,30.20,SSW,212,7.0,12.0,70,0.00,,---,0.00,VWS V14.01,2013-09-06 11:37:00,
2013-09-06 07:42:00,59.5,50.1,30.20,NE,53,6.0,12.0,71,0.00,,---,0.00,VWS V14.01,2013-09-06 11:42:00,
2013-09-06 07:47:00,59.7,50.3,30.20,SW,229,3.0,12.0,71,0.00,,---,0.00,VWS V14.01,2013-09-06 11:47:00,
2013-09-06 07:52:00,59.9,50.5,30.20,West,264,2.0,12.0,71,0.00,,---,0.00,VWS V14.01,2013-09-06 11:52:00,
2013-09-06 07:57:00,59.9,50.5,30.20,North,11,6.0,13.0,71,0.00,,---,0.00,VWS V14.01,2013-09-06 11:57:00,
2013-09-06 08:02:00,60.1,51.1,30.20,SW,231,2.0,9.0,72,0.00,,---,0.00,VWS V14.01,2013-09-06 12:02:00,
2013-09-06 08:07:00,60.2,50.8,30.20,NW,313,2.0,12.0,71,0.00,,---,0.00,VWS V14.01,2013-09-06 12:07:00,
2013-09-06 08:12:00,60.4,50.6,30.21,NW,321,9.0,14.0,70,0.00,,---,0.00,VWS V14.01,2013-09-06 12:12:00,
2013-09-06 08:17:00,60.3,50.9,30.21,NNW,335,10.0,14.0,71,0.00,,---,0.00,VWS V14.01,2013-09-06 12:17:00,
2013-09-06 08:22:00,60.5,51.1,30.21,West,276,9.0,14.0,71,0.00,,---,0.00,VWS V14.01,2013-09-06 12:22:00,
2013-09-06 08:27:00,60.8,51.0,30.21,WNW,287,8.0,14.0,70,0.00,,---,0.00,VWS V14.01,2013-09-06 12:27:00,
2013-09-06 08:32:00,61.0,51.2,30.21,NW,323,6.0,12.0,70,0.00,,---,0.00,VWS V14.01,2013-09-06 12:32:00,
2013-09-06 08:37:00,61.1,50.9,30.21,West,259,9.0,14.0,69,0.00,,---,0.00,VWS V14.01,2013-09-06 12:37:00,
2013-09-06 08:42:00,61.4,51.5,30.21,West,269,6.0,14.0,70,0.00,,---,0.00,VWS V14.01,2013-09-06 12:42:00,
2013-09-06 08:47:00,61.4,51.5,30.21,NW,320,3.0,14.0,70,0.00,,---,0.00,VWS V14.01,2013-09-06 12:47:00,
2013-09-06 08:52:00,61.6,51.7,30.21,NW,311,5.0,14.0,70,0.00,,---,0.00,VWS V14.01,2013-09-06 12:52:00,
2013-09-06 08:57:00,61.9,51.6,30.21,West,264,4.0,14.0,69,0.00,,---,0.00,VWS V14.01,2013-09-06 12:57:00,
2013-09-06 09:02:00,62.3,51.6,30.21,NNW,341,11.0,11.0,68,0.00,,---,0.00,VWS V14.01,2013-09-06 13:02:00,
2013-09-06 09:07:00,62.7,52.0,30.22,WNW,283,8.0,12.0,68,0.00,,---,0.00,VWS V14.01,2013-09-06 13:07:00,
2013-09-06 09:12:00,63.0,51.9,30.22,North,1,7.0,12.0,67,0.00,,---,0.00,VWS V14.01,2013-09-06 13:12:00,
2013-09-06 09:17:00,63.5,52.0,30.22,WNW,302,6.0,12.0,66,0.00,,---,0.00,VWS V14.01,2013-09-06 13:17:00,
2013-09-06 09:22:00,63.6,52.0,30.22,NW,323,8.0,12.0,66,0.00,,---,0.00,VWS V14.01,2013-09-06 13:22:00,
2013-09-06 09:27:00,63.9,52.3,30.22,NW,304,7.0,12.0,66,0.00,,---,0.00,VWS V14.01,2013-09-06 13:27:00,
2013-09-06 09:32:00,64.3,52.7,30.22,NE,51,5.0,10.0,66,0.00,,---,0.00,VWS V14.01,2013-09-06 13:32:00,
2013-09-06 09:37:00,65.0,53.0,30.22,NNW,331,8.0,10.0,65,0.00,,---,0.00,VWS V14.01,2013-09-06 13:37:00,
2013-09-06 09:42:00,65.1,53.1,30.22,NE,52,9.0,11.0,65,0.00,,---,0.00,VWS V14.01,2013-09-06 13:42:00,
2013-09-06 09:47:00,65.5,53.0,30.22,NW,323,6.0,11.0,64,0.00,,---,0.00,VWS V14.01,2013-09-06 13:47:00,
2013-09-06 09:52:00,65.9,53.4,30.22,NNE,23,6.0,11.0,64,0.00,,---,0.00,VWS V14.01,2013-09-06 13:52:00,
2013-09-06 09:57:00,66.2,53.2,30.22,NNE,17,8.0,11.0,63,0.00,,---,0.00,VWS V14.01,2013-09-06 13:57:00,
2013-09-06 10:02:00,66.3,53.3,30.22,NNE,25,1.0,9.0,63,0.00,,---,0.00,VWS V14.01,2013-09-06 14:02:00,
2013-09-06 10:07:00,66.9,53.5,30.22,NNE,24,2.0,9.0,62,0.00,,---,0.00,VWS V14.01,2013-09-06 14:07:00,
2013-09-06 10:12:00,67.1,53.7,30.22,NW,325,2.0,9.0,62,0.00,,---,0.00,VWS V14.01,2013-09-06 14:12:00,
2013-09-06 10:17:00,67.4,53.5,30.22,North,9,4.0,9.0,61,0.00,,---,0.00,VWS V14.01,2013-09-06 14:17:00,
2013-09-06 10:22:00,67.5,53.6,30.22,NE,39,7.0,10.0,61,0.00,,---,0.00,VWS V14.01,2013-09-06 14:22:00,
2013-09-06 10:27:00,67.5,53.6,30.22,North,358,2.0,10.0,61,0.00,,---,0.00,VWS V14.01,2013-09-06 14:27:00,
2013-09-06 10:33:00,68.2,53.3,30.22,East,92,0.0,8.0,59,0.00,,---,0.00,VWS V14.01,2013-09-06 14:33:00,
2013-09-06 10:38:00,68.5,53.2,30.22,North,1,5.0,11.0,58,0.00,,---,0.00,VWS V14.01,2013-09-06 14:38:00,
2013-09-06 10:43:00,68.8,53.4,30.22,East,93,2.0,11.0,58,0.00,,---,0.00,VWS V14.01,2013-09-06 14:43:00,
2013-09-06 10:48:00,68.4,53.1,30.22,NNE,19,6.0,11.0,58,0.00,,---,0.00,VWS V14.01,2013-09-06 14:48:00,
2013-09-06 10:53:00,68.4,52.1,30.22,NE,44,8.0,12.0,56,0.00,,---,0.00,VWS V14.01,2013-09-06 14:53:00,
2013-09-06 10:58:00,68.3,52.5,30.22,West,267,3.0,12.0,57,0.00,,---,0.00,VWS V14.01,2013-09-06 14:58:00,
2013-09-06 11:03:00,68.8,52.5,30.22,NNW,339,3.0,11.0,56,0.00,,---,0.00,VWS V14.01,2013-09-06 15:03:00,
2013-09-06 11:08:00,69.6,52.7,30.22,NE,41,6.0,11.0,55,0.00,,---,0.00,VWS V14.01,2013-09-06 15:08:00,
2013-09-06 11:13:00,69.5,51.6,30.22,NNE,26,6.0,11.0,53,0.00,,---,0.00,VWS V14.01,2013-09-06 15:13:00,
2013-09-06 11:18:00,69.4,52.0,30.22,NNE,17,6.0,11.0,54,0.00,,---,0.00,VWS V14.01,2013-09-06 15:18:00,
2013-09-06 11:23:00,69.7,52.3,30.22,West,278,1.0,11.0,54,0.00,,---,0.00,VWS V14.01,2013-09-06 15:23:00,
2013-09-06 11:28:00,69.5,52.2,30.22,NNE,33,5.0,11.0,54,0.00,,---,0.00,VWS V14.01,2013-09-06 15:28:00,
2013-09-06 11:33:00,69.6,51.2,30.22,ENE,65,4.0,8.0,52,0.00,,---,0.00,VWS V14.01,2013-09-06 15:33:00,
2013-09-06 11:38:00,69.7,50.8,30.22,ESE,113,5.0,9.0,51,0.00,,---,0.00,VWS V14.01,2013-09-06 15:38:00,
2013-09-06 11:43:00,69.8,51.4,30.22,NE,53,4.0,10.0,52,0.00,,---,0.00,VWS V14.01,2013-09-06 15:43:00,
2013-09-06 11:48:00,69.8,51.4,30.22,NNE,24,5.0,11.0,52,0.00,,---,0.00,VWS V14.01,2013-09-06 15:48:00,
2013-09-06 11:53:00,70.2,51.8,30.22,NE,56,7.0,11.0,52,0.00,,---,0.00,VWS V14.01,2013-09-06 15:53:00,
2013-09-06 11:58:00,70.3,53.9,30.22,NE,36,2.0,11.0,56,0.00,,---,0.00,VWS V14.01,2013-09-06 15:58:00,
2013-09-06 12:03:00,70.4,54.0,30.22,ESE,115,5.0,11.0,56,0.00,,---,0.00,VWS V14.01,2013-09-06 16:03:00,
2013-09-06 12:08:00,69.7,55.2,30.22,NNE,33,9.0,11.0,60,0.00,,---,0.00,VWS V14.01,2013-09-06 16:08:00,
2013-09-06 12:13:00,69.4,54.9,30.21,NE,41,3.0,12.0,60,0.00,,---,0.00,VWS V14.01,2013-09-06 16:13:00,
2013-09-06 12:18:00,69.6,55.1,30.21,NE,50,9.0,12.0,60,0.00,,---,0.00,VWS V14.01,2013-09-06 16:18:00,
2013-09-06 12:23:00,69.7,55.2,30.21,ESE,110,7.0,12.0,60,0.00,,---,0.00,VWS V14.01,2013-09-06 16:23:00,
2013-09-06 12:28:00,69.6,54.7,30.21,NE,55,7.0,12.0,59,0.00,,---,0.00,VWS V14.01,2013-09-06 16:28:00,
2013-09-06 12:33:00,69.3,55.3,30.21,ENE,58,8.0,12.0,61,0.00,,---,0.00,VWS V14.01,2013-09-06 16:33:00,
2013-09-06 12:38:00,69.6,56.0,30.21,NNE,25,9.0,12.0,62,0.00,,---,0.00,VWS V14.01,2013-09-06 16:38:00,
2013-09-06 12:43:00,69.3,54.8,30.21,NE,40,8.0,12.0,60,0.00,,---,0.00,VWS V14.01,2013-09-06 16:43:00,
2013-09-06 12:48:00,69.0,55.0,30.21,ENE,63,10.0,12.0,61,0.00,,---,0.00,VWS V14.01,2013-09-06 16:48:00,
2013-09-06 12:53:00,68.8,54.4,30.21,ENE,64,7.0,13.0,60,0.00,,---,0.00,VWS V14.01,2013-09-06 16:53:00,
2013-09-06 12:58:00,69.0,54.1,30.21,ENE,72,8.0,13.0,59,0.00,,---,0.00,VWS V14.01,2013-09-06 16:58:00,
2013-09-06 13:03:00,69.4,54.5,30.21,NE,50,8.0,10.0,59,0.00,,---,0.00,VWS V14.01,2013-09-06 17:03:00,
2013-09-06 13:08:00,69.2,53.8,30.21,ENE,70,8.0,11.0,58,0.00,,---,0.00,VWS V14.01,2013-09-06 17:08:00,
2013-09-06 13:13:00,69.5,54.6,30.21,East,101,6.0,11.0,59,0.00,,---,0.00,VWS V14.01,2013-09-06 17:13:00,
2013-09-06 13:18:00,69.3,54.4,30.20,East,95,7.0,11.0,59,0.00,,---,0.00,VWS V14.01,2013-09-06 17:18:00,
2013-09-06 13:23:00,69.2,53.3,30.21,East,88,7.0,11.0,57,0.00,,---,0.00,VWS V14.01,2013-09-06 17:23:00,
2013-09-06 13:28:00,69.6,53.7,30.21,NE,49,3.0,11.0,57,0.00,,---,0.00,VWS V14.01,2013-09-06 17:28:00,
2013-09-06 13:33:00,69.7,53.3,30.20,ENE,67,6.0,9.0,56,0.00,,---,0.00,VWS V14.01,2013-09-06 17:33:00,
2013-09-06 13:38:00,69.4,54.0,30.20,NE,34,8.0,11.0,58,0.00,,---,0.00,VWS V14.01,2013-09-06 17:38:00,
2013-09-06 13:43:00,69.0,53.6,30.20,NE,56,7.0,11.0,58,0.00,,---,0.00,VWS V14.01,2013-09-06 17:43:00,
2013-09-06 13:48:00,69.1,54.7,30.20,NE,34,9.0,11.0,60,0.00,,---,0.00,VWS V14.01,2013-09-06 17:48:00,
2013-09-06 13:53:00,69.3,53.4,30.20,ENE,58,8.0,11.0,57,0.00,,---,0.00,VWS V14.01,2013-09-06 17:53:00,
2013-09-06 13:58:00,68.9,54.0,30.20,East,84,6.0,11.0,59,0.00,,---,0.00,VWS V14.01,2013-09-06 17:58:00,
2013-09-06 14:03:00,68.9,53.1,30.20,ENE,65,8.0,9.0,57,0.00,,---,0.00,VWS V14.01,2013-09-06 18:03:00,
2013-09-06 14:08:00,69.2,53.8,30.19,NE,47,8.0,10.0,58,0.00,,---,0.00,VWS V14.01,2013-09-06 18:08:00,
2013-09-06 14:13:00,69.3,53.9,30.19,East,89,6.0,11.0,58,0.00,,---,0.00,VWS V14.01,2013-09-06 18:13:00,
2013-09-06 14:18:00,69.0,54.1,30.19,ENE,61,9.0,11.0,59,0.00,,---,0.00,VWS V14.01,2013-09-06 18:18:00,
2013-09-06 14:23:00,68.8,53.9,30.19,NNE,32,6.0,11.0,59,0.00,,---,0.00,VWS V14.01,2013-09-06 18:23:00,
2013-09-06 14:28:00,69.3,53.4,30.19,ENE,58,9.0,11.0,57,0.00,,---,0.00,VWS V14.01,2013-09-06 18:28:00,
2013-09-06 14:33:00,68.7,54.3,30.18,NE,51,8.0,10.0,60,0.00,,---,0.00,VWS V14.01,2013-09-06 18:33:00,
2013-09-06 14:38:00,69.1,54.2,30.18,ESE,103,7.0,10.0,59,0.00,,---,0.00,VWS V14.01,2013-09-06 18:38:00,
2013-09-06 14:43:00,69.0,53.2,30.18,ENE,71,5.0,11.0,57,0.00,,---,0.00,VWS V14.01,2013-09-06 18:43:00,
2013-09-06 14:48:00,69.1,53.2,30.18,ENE,62,7.0,11.0,57,0.00,,---,0.00,VWS V14.01,2013-09-06 18:48:00,
2013-09-06 14:53:00,69.1,54.2,30.17,ENE,66,9.0,11.0,59,0.00,,---,0.00,VWS V14.01,2013-09-06 18:53:00,
2013-09-06 14:58:00,69.1,54.2,30.17,NE,52,8.0,11.0,59,0.00,,---,0.00,VWS V14.01,2013-09-06 18:58:00,
2013-09-06 15:03:00,69.0,53.6,30.17,NE,46,8.0,10.0,58,0.00,,---,0.00,VWS V14.01,2013-09-06 19:03:00,
2013-09-06 15:08:00,68.7,52.9,30.17,ENE,65,9.0,11.0,57,0.00,,---,0.00,VWS V14.01,2013-09-06 19:08:00,
2013-09-06 15:13:00,68.5,53.6,30.17,NE,39,8.0,11.0,59,0.00,,---,0.00,VWS V14.01,2013-09-06 19:13:00,
2013-09-06 15:18:00,68.6,52.8,30.17,ENE,65,4.0,11.0,57,0.00,,---,0.00,VWS V14.01,2013-09-06 19:18:00,
2013-09-06 15:23:00,68.9,52.6,30.17,ENE,65,6.0,11.0,56,0.00,,---,0.00,VWS V14.01,2013-09-06 19:23:00,
2013-09-06 15:28:00,68.9,54.0,30.17,ENE,77,8.0,11.0,59,0.00,,---,0.00,VWS V14.01,2013-09-06 19:28:00,
2013-09-06 15:33:00,68.5,52.7,30.17,ENE,62,6.0,7.0,57,0.00,,---,0.00,VWS V14.01,2013-09-06 19:33:00,
2013-09-06 15:38:00,68.3,53.4,30.17,East,83,7.0,9.0,59,0.00,,---,0.00,VWS V14.01,2013-09-06 19:38:00,
2013-09-06 15:43:00,67.7,52.9,30.16,NNE,26,4.0,9.0,59,0.00,,---,0.00,VWS V14.01,2013-09-06 19:43:00,
2013-09-06 15:48:00,67.8,53.0,30.16,NE,52,5.0,9.0,59,0.00,,---,0.00,VWS V14.01,2013-09-06 19:48:00,
2013-09-06 15:53:00,68.2,52.9,30.16,ENE,64,8.0,9.0,58,0.00,,---,0.00,VWS V14.01,2013-09-06 19:53:00,
2013-09-06 15:58:00,68.3,53.4,30.16,ENE,78,3.0,9.0,59,0.00,,---,0.00,VWS V14.01,2013-09-06 19:58:00,
2013-09-06 16:03:00,68.3,53.4,30.16,NE,51,7.0,8.0,59,0.00,,---,0.00,VWS V14.01,2013-09-06 20:03:00,
2013-09-06 16:08:00,67.9,53.5,30.16,ENE,63,7.0,9.0,60,0.00,,---,0.00,VWS V14.01,2013-09-06 20:08:00,
2013-09-06 16:13:00,67.7,53.8,30.16,ENE,58,8.0,9.0,61,0.00,,---,0.00,VWS V14.01,2013-09-06 20:13:00,
2013-09-06 16:18:00,67.9,53.5,30.16,NE,55,7.0,9.0,60,0.00,,---,0.00,VWS V14.01,2013-09-06 20:18:00,
2013-09-06 16:23:00,67.6,53.7,30.16,ENE,60,8.0,9.0,61,0.00,,---,0.00,VWS V14.01,2013-09-06 20:23:00,
2013-09-06 16:28:00,67.7,53.3,30.15,ENE,60,5.0,9.0,60,0.00,,---,0.00,VWS V14.01,2013-09-06 20:28:00,
2013-09-06 16:33:00,67.9,53.5,30.15,ENE,65,7.0,9.0,60,0.00,,---,0.00,VWS V14.01,2013-09-06 20:33:00,
2013-09-06 16:38:00,67.8,53.4,30.15,ENE,76,5.0,10.0,60,0.00,,---,0.00,VWS V14.01,2013-09-06 20:38:00,
2013-09-06 16:43:00,68.0,54.5,30.15,East,97,4.0,10.0,62,0.00,,---,0.00,VWS V14.01,2013-09-06 20:43:00,
2013-09-06 16:48:00,67.6,53.7,30.15,NE,47,6.0,10.0,61,0.00,,---,0.00,VWS V14.01,2013-09-06 20:48:00,
2013-09-06 16:53:00,67.5,54.0,30.15,NE,39,5.0,10.0,62,0.00,,---,0.00,VWS V14.01,2013-09-06 20:53:00,
2013-09-06 16:58:00,67.6,54.1,30.15,ENE,71,5.0,10.0,62,0.00,,---,0.00,VWS V14.01,2013-09-06 20:58:00,
2013-09-06 17:03:00,67.6,54.6,30.15,ENE,57,5.0,7.0,63,0.00,,---,0.00,VWS V14.01,2013-09-06 21:03:00,
2013-09-06 17:08:00,67.6,53.7,30.15,ENE,58,6.0,8.0,61,0.00,,---,0.00,VWS V14.01,2013-09-06 21:08:00,
2013-09-06 17:13:00,67.7,53.8,30.15,ENE,61,6.0,8.0,61,0.00,,---,0.00,VWS V14.01,2013-09-06 21:13:00,
2013-09-06 17:18:00,67.8,53.9,30.15,ENE,67,5.0,8.0,61,0.00,,---,0.00,VWS V14.01,2013-09-06 21:18:00,
2013-09-06 17:23:00,67.7,54.2,30.15,ENE,73,6.0,8.0,62,0.00,,---,0.00,VWS V14.01,2013-09-06 21:23:00,
2013-09-06 17:28:00,67.4,54.8,30.14,ENE,62,9.0,9.0,64,0.00,,---,0.00,VWS V14.01,2013-09-06 21:28:00,
2013-09-06 17:33:00,67.3,53.8,30.15,ENE,62,7.0,7.0,62,0.00,,---,0.00,VWS V14.01,2013-09-06 21:33:00,
2013-09-06 17:38:00,67.3,53.8,30.15,NE,56,6.0,7.0,62,0.00,,---,0.00,VWS V14.01,2013-09-06 21:38:00,
2013-09-06 17:43:00,67.3,53.8,30.15,ENE,70,6.0,7.0,62,0.00,,---,0.00,VWS V14.01,2013-09-06 21:43:00,
2013-09-06 17:48:00,67.4,53.5,30.15,ENE,71,7.0,7.0,61,0.00,,---,0.00,VWS V14.01,2013-09-06 21:48:00,
2013-09-06 17:53:00,67.2,53.8,30.15,NE,56,5.0,7.0,62,0.00,,---,0.00,VWS V14.01,2013-09-06 21:53:00,
2013-09-06 17:58:00,67.2,52.9,30.15,ENE,59,4.0,7.0,60,0.00,,---,0.00,VWS V14.01,2013-09-06 21:58:00,
2013-09-06 18:03:00,67.1,54.1,30.15,ENE,65,5.0,7.0,63,0.00,,---,0.00,VWS V14.01,2013-09-06 22:03:00,
2013-09-06 18:08:00,67.1,53.2,30.15,ENE,68,5.0,7.0,61,0.00,,---,0.00,VWS V14.01,2013-09-06 22:08:00,
2013-09-06 18:13:00,66.8,52.9,30.15,NE,51,2.0,7.0,61,0.00,,---,0.00,VWS V14.01,2013-09-06 22:13:00,
2013-09-06 18:18:00,66.8,52.9,30.15,ENE,58,4.0,7.0,61,0.00,,---,0.00,VWS V14.01,2013-09-06 22:18:00,
2013-09-06 18:23:00,66.7,53.7,30.14,NE,49,5.0,8.0,63,0.00,,---,0.00,VWS V14.01,2013-09-06 22:23:00,
2013-09-06 18:28:00,66.7,53.3,30.14,ENE,65,5.0,8.0,62,0.00,,---,0.00,VWS V14.01,2013-09-06 22:28:00,
2013-09-06 18:33:00,66.6,53.2,30.14,NE,41,3.0,6.0,62,0.00,,---,0.00,VWS V14.01,2013-09-06 22:33:00,
2013-09-06 18:38:00,66.6,53.6,30.15,NE,53,6.0,6.0,63,0.00,,---,0.00,VWS V14.01,2013-09-06 22:38:00,
2013-09-06 18:43:00,66.4,53.0,30.15,ENE,61,6.0,8.0,62,0.00,,---,0.00,VWS V14.01,2013-09-06 22:43:00,
2013-09-06 18:48:00,66.3,53.3,30.14,ENE,59,7.0,8.0,63,0.00,,---,0.00,VWS V14.01,2013-09-06 22:48:00,
2013-09-06 18:53:00,66.2,52.8,30.14,East,89,3.0,8.0,62,0.00,,---,0.00,VWS V14.01,2013-09-06 22:53:00,
2013-09-06 18:58:00,66.1,54.0,30.14,NE,40,2.0,8.0,65,0.00,,---,0.00,VWS V14.01,2013-09-06 22:58:00,
2013-09-06 19:03:00,65.9,53.4,30.15,ENE,60,5.0,7.0,64,0.00,,---,0.00,VWS V14.01,2013-09-06 23:03:00,
2013-09-06 19:08:00,65.9,54.2,30.15,ENE,72,5.0,7.0,66,0.00,,---,0.00,VWS V14.01,2013-09-06 23:08:00,
2013-09-06 19:13:00,65.8,53.3,30.15,ENE,60,5.0,7.0,64,0.00,,---,0.00,VWS V14.01,2013-09-06 23:13:00,
2013-09-06 19:18:00,65.6,54.0,30.15,NE,49,4.0,7.0,66,0.00,,---,0.00,VWS V14.01,2013-09-06 23:18:00,
2013-09-06 19:23:00,65.5,53.8,30.14,NE,53,4.0,7.0,66,0.00,,---,0.00,VWS V14.01,2013-09-06 23:23:00,
2013-09-06 19:28:00,65.4,52.5,30.15,ENE,61,5.0,8.0,63,0.00,,---,0.00,VWS V14.01,2013-09-06 23:28:00,
2013-09-06 19:33:00,65.5,53.4,30.15,NE,50,4.0,5.0,65,0.00,,---,0.00,VWS V14.01,2013-09-06 23:33:00,
2013-09-06 19:38:00,65.4,53.3,30.15,ENE,60,6.0,6.0,65,0.00,,---,0.00,VWS V14.01,2013-09-06 23:38:00,
2013-09-06 19:43:00,65.4,52.9,30.15,NE,48,2.0,6.0,64,0.00,,---,0.00,VWS V14.01,2013-09-06 23:43:00,
2013-09-06 19:48:00,65.5,53.4,30.15,ENE,59,6.0,7.0,65,0.00,,---,0.00,VWS V14.01,2013-09-06 23:48:00,
2013-09-06 19:53:00,65.4,53.3,30.15,NE,41,4.0,8.0,65,0.00,,---,0.00,VWS V14.01,2013-09-06 23:53:00,
2013-09-06 19:58:00,65.4,53.3,30.15,NE,55,5.0,8.0,65,0.00,,---,0.00,VWS V14.01,2013-09-06 23:58:00,
2013-09-06 20:03:00,65.4,53.3,30.15,ENE,60,3.0,6.0,65,0.00,,---,0.00,VWS V14.01,2013-09-07 00:03:00,
2013-09-06 20:08:00,65.3,52.8,30.15,NNE,27,3.0,6.0,64,0.00,,---,0.00,VWS V14.01,2013-09-07 00:08:00,
2013-09-06 20:13:00,65.3,53.2,30.15,ENE,70,4.0,7.0,65,0.00,,---,0.00,VWS V14.01,2013-09-07 00:13:00,
2013-09-06 20:18:00,65.3,52.8,30.15,ENE,70,1.0,7.0,64,0.00,,---,0.00,VWS V14.01,2013-09-07 00:18:00,
2013-09-06 20:23:00,65.2,53.2,30.15,ENE,70,3.0,7.0,65,0.00,,---,0.00,VWS V14.01,2013-09-07 00:23:00,
2013-09-06 20:28:00,65.2,52.7,30.15,ENE,59,4.0,7.0,64,0.00,,---,0.00,VWS V14.01,2013-09-07 00:28:00,
2013-09-06 20:33:00,65.2,53.6,30.15,ENE,70,5.0,6.0,66,0.00,,---,0.00,VWS V14.01,2013-09-07 00:33:00,
2013-09-06 20:38:00,65.3,52.8,30.15,ESE,103,1.0,6.0,64,0.00,,---,0.00,VWS V14.01,2013-09-07 00:38:00,
2013-09-06 20:43:00,65.4,54.2,30.15,ENE,60,6.0,7.0,67,0.00,,---,0.00,VWS V14.01,2013-09-07 00:43:00,
2013-09-06 20:48:00,65.4,53.3,30.15,ENE,72,5.0,7.0,65,0.00,,---,0.00,VWS V14.01,2013-09-07 00:48:00,
2013-09-06 20:53:00,65.3,53.7,30.15,NE,56,4.0,7.0,66,0.00,,---,0.00,VWS V14.01,2013-09-07 00:53:00,
2013-09-06 20:58:00,65.2,53.6,30.15,NE,55,4.0,7.0,66,0.00,,---,0.00,VWS V14.01,2013-09-07 00:58:00,
2013-09-06 21:03:00,65.3,53.7,30.15,ENE,61,6.0,7.0,66,0.00,,---,0.00,VWS V14.01,2013-09-07 01:03:00,
2013-09-06 21:08:00,65.2,53.6,30.15,ENE,57,5.0,7.0,66,0.00,,---,0.00,VWS V14.01,2013-09-07 01:08:00,
2013-09-06 21:13:00,65.3,53.7,30.15,NE,44,3.0,7.0,66,0.00,,---,0.00,VWS V14.01,2013-09-07 01:13:00,
2013-09-06 21:18:00,65.2,52.7,30.15,ENE,60,2.0,7.0,64,0.00,,---,0.00,VWS V14.01,2013-09-07 01:18:00,
2013-09-06 21:23:00,65.2,53.2,30.15,NE,56,5.0,7.0,65,0.00,,---,0.00,VWS V14.01,2013-09-07 01:23:00,
2013-09-06 21:28:00,65.3,52.4,30.15,ENE,58,5.0,7.0,63,0.00,,---,0.00,VWS V14.01,2013-09-07 01:28:00,
2013-09-06 21:33:00,65.3,53.2,30.15,East,97,1.0,3.0,65,0.00,,---,0.00,VWS V14.01,2013-09-07 01:33:00,
2013-09-06 21:38:00,65.2,53.2,30.14,NE,56,4.0,6.0,65,0.00,,---,0.00,VWS V14.01,2013-09-07 01:38:00,
2013-09-06 21:43:00,65.2,53.6,30.14,NE,44,3.0,6.0,66,0.00,,---,0.00,VWS V14.01,2013-09-07 01:43:00,
2013-09-06 21:48:00,65.2,53.6,30.14,NE,44,4.0,6.0,66,0.00,,---,0.00,VWS V14.01,2013-09-07 01:48:00,
2013-09-06 21:53:00,65.2,53.2,30.14,ENE,60,3.0,6.0,65,0.00,,---,0.00,VWS V14.01,2013-09-07 01:53:00,
2013-09-06 21:58:00,65.1,53.1,30.15,ENE,65,4.0,6.0,65,0.00,,---,0.00,VWS V14.01,2013-09-07 01:58:00,
2013-09-06 22:03:00,65.2,52.7,30.14,ENE,60,5.0,6.0,64,0.00,,---,0.00,VWS V14.01,2013-09-07 02:03:00,
2013-09-06 22:09:00,65.1,53.1,30.14,East,91,1.0,6.0,65,0.00,,---,0.00,VWS V14.01,2013-09-07 02:09:00,
2013-09-06 22:14:00,65.1,52.6,30.14,ENE,62,2.0,6.0,64,0.00,,---,0.00,VWS V14.01,2013-09-07 02:14:00,
2013-09-06 22:19:00,64.9,52.5,30.14,East,83,1.0,6.0,64,0.00,,---,0.00,VWS V14.01,2013-09-07 02:19:00,
2013-09-06 22:24:00,65.0,52.5,30.14,ENE,59,3.0,6.0,64,0.00,,---,0.00,VWS V14.01,2013-09-07 02:24:00,
2013-09-06 22:29:00,65.1,52.2,30.14,East,82,1.0,6.0,63,0.00,,---,0.00,VWS V14.01,2013-09-07 02:29:00,
2013-09-06 22:34:00,65.0,53.0,30.14,ENE,57,3.0,4.0,65,0.00,,---,0.00,VWS V14.01,2013-09-07 02:34:00,
2013-09-06 22:39:00,65.0,52.5,30.14,NE,56,3.0,4.0,64,0.00,,---,0.00,VWS V14.01,2013-09-07 02:39:00,
2013-09-06 22:44:00,65.0,53.0,30.14,SE,139,1.0,4.0,65,0.00,,---,0.00,VWS V14.01,2013-09-07 02:44:00,
2013-09-06 22:49:00,64.8,52.3,30.14,East,99,2.0,4.0,64,0.00,,---,0.00,VWS V14.01,2013-09-07 02:49:00,
2013-09-06 22:54:00,64.9,52.5,30.14,ENE,58,2.0,4.0,64,0.00,,---,0.00,VWS V14.01,2013-09-07 02:54:00,
2013-09-06 22:59:00,65.1,52.6,30.14,ENE,60,3.0,4.0,64,0.00,,---,0.00,VWS V14.01,2013-09-07 02:59:00,
2013-09-06 23:04:00,65.2,52.7,30.14,ENE,60,1.0,3.0,64,0.00,,---,0.00,VWS V14.01,2013-09-07 03:04:00,
2013-09-06 23:09:00,64.8,52.8,30.14,East,86,0.0,3.0,65,0.00,,---,0.00,VWS V14.01,2013-09-07 03:09:00,
2013-09-06 23:14:00,64.4,52.4,30.14,East,86,0.0,3.0,65,0.00,,---,0.00,VWS V14.01,2013-09-07 03:14:00,
2013-09-06 23:19:00,64.4,52.4,30.14,ENE,61,0.0,3.0,65,0.00,,---,0.00,VWS V14.01,2013-09-07 03:19:00,
2013-09-06 23:24:00,64.5,52.5,30.14,ENE,60,1.0,3.0,65,0.00,,---,0.00,VWS V14.01,2013-09-07 03:24:00,
2013-09-06 23:29:00,64.6,52.6,30.14,ENE,73,0.0,3.0,65,0.00,,---,0.00,VWS V14.01,2013-09-07 03:29:00,
2013-09-06 23:34:00,64.7,52.7,30.14,ENE,73,0.0,0.0,65,0.00,,---,0.00,VWS V14.01,2013-09-07 03:34:00,
2013-09-06 23:39:00,64.4,52.4,30.14,ENE,70,0.0,2.0,65,0.00,,---,0.00,VWS V14.01,2013-09-07 03:39:00,
2013-09-06 23:44:00,64.1,52.5,30.14,ENE,75,0.0,2.0,66,0.00,,---,0.00,VWS V14.01,2013-09-07 03:44:00,
2013-09-06 23:49:00,64.1,52.5,30.14,ENE,75,0.0,2.0,66,0.00,,---,0.00,VWS V14.01,2013-09-07 03:49:00,
2013-09-06 23:54:00,64.0,52.4,30.13,ENE,75,0.0,2.0,66,0.00,,---,0.00,VWS V14.01,2013-09-07 03:54:00,
2013-09-06 23:59:00,63.8,52.2,30.13,ENE,75,0.0,2.0,66,0.00,,---,0.00,VWS V14.01,2013-09-07 03:59:00,